Time,TemperatureF,DewpointF,PressureIn,WindDirection,WindDirectionDegrees,WindSpeedMPH,WindSpeedGustMPH,Humidity,HourlyPrecipIn,Conditions,Clouds,dailyrainin,SoftwareType,DateUTC
2013-10-07 00:06:00,74.6,67.0,29.68,South,178,2.0,-999.0,78,-99.99,,,0.00,weatherlink.com 1.10,2013-10-07 04:06:00,
2013-10-07 00:21:00,74.6,67.0,29.68,SSW,200,2.0,-999.0,78,-99.99,,,0.00,weatherlink.com 1.10,2013-10-07 04:21:00,
2013-10-07 00:36:00,74.9,67.0,29.68,SE,140,2.0,-999.0,76,-99.99,,,0.00,weatherlink.com 1.10,2013-10-07 04:36:00,
2013-10-07 00:51:00,75.3,67.0,29.68,SSE,162,1.0,-999.0,75,-99.99,,,0.00,weatherlink.com 1.10,2013-10-07 04:51:00,
2013-10-07 01:06:00,75.5,66.0,29.69,WSW,248,3.0,-999.0,73,-99.99,,,0.00,weatherlink.com 1.10,2013-10-07 05:06:00,
2013-10-07 01:21:00,70.6,65.0,29.69,West,274,3.0,-999.0,83,-99.99,,,0.00,weatherlink.com 1.10,2013-10-07 05:21:00,
2013-10-07 01:36:00,68.4,65.0,29.69,WNW,282,3.0,-999.0,89,-99.99,,,0.00,weatherlink.com 1.10,2013-10-07 05:36:00,
2013-10-07 01:51:00,67.4,65.0,29.69,WNW,287,0.0,-999.0,92,-99.99,,,0.00,weatherlink.com 1.10,2013-10-07 05:51:00,
2013-10-07 02:06:00,67.1,65.0,29.69,WNW,294,1.0,-999.0,92,-99.99,,,0.00,weatherlink.com 1.10,2013-10-07 06:06:00,
2013-10-07 02:21:00,66.4,64.0,29.68,WNW,294,0.0,-999.0,93,-99.99,,,0.00,weatherlink.com 1.10,2013-10-07 06:21:00,
2013-10-07 02:36:00,66.1,64.0,29.68,WNW,294,0.0,-999.0,94,-99.99,,,0.00,weatherlink.com 1.10,2013-10-07 06:36:00,
2013-10-07 02:51:00,66.0,65.0,29.68,WNW,294,0.0,-999.0,95,-99.99,,,0.00,weatherlink.com 1.10,2013-10-07 06:51:00,
2013-10-07 03:06:00,66.3,65.0,29.67,WNW,294,0.0,-999.0,95,-99.99,,,0.00,weatherlink.com 1.10,2013-10-07 07:06:00,
2013-10-07 03:21:00,66.2,65.0,29.67,WNW,294,0.0,-999.0,95,-99.99,,,0.00,weatherlink.com 1.10,2013-10-07 07:21:00,
2013-10-07 03:36:00,66.4,65.0,29.66,SSE,160,0.0,-999.0,95,-99.99,,,0.00,weatherlink.com 1.10,2013-10-07 07:36:00,
2013-10-07 03:51:00,66.9,66.0,29.66,South,191,3.0,-999.0,96,-99.99,,,0.00,weatherlink.com 1.10,2013-10-07 07:51:00,
2013-10-07 04:06:00,67.5,66.0,29.67,SW,219,1.0,-999.0,94,-99.99,,,0.00,weatherlink.com 1.10,2013-10-07 08:06:00,
2013-10-07 04:21:00,67.5,66.0,29.68,WNW,288,2.0,-999.0,93,-99.99,,,0.00,weatherlink.com 1.10,2013-10-07 08:21:00,
2013-10-07 04:36:00,67.4,65.0,29.69,SW,223,2.0,-999.0,93,-99.99,,,0.00,weatherlink.com 1.10,2013-10-07 08:36:00,
2013-10-07 04:52:00,65.4,61.0,29.69,West,262,4.0,-999.0,85,-99.99,,,0.00,weatherlink.com 1.10,2013-10-07 08:52:00,
2013-10-07 05:07:00,64.2,60.0,29.69,WNW,286,3.0,-999.0,85,-99.99,,,0.00,weatherlink.com 1.10,2013-10-07 09:07:00,
2013-10-07 05:22:00,63.1,58.0,29.70,WSW,256,4.0,-999.0,84,-99.99,,,0.00,weatherlink.com 1.10,2013-10-07 09:22:00,
2013-10-07 05:37:00,62.0,58.0,29.70,SW,236,4.0,-999.0,86,-99.99,,,0.01,weatherlink.com 1.10,2013-10-07 09:37:00,
2013-10-07 05:52:00,61.0,58.0,29.71,SSE,158,4.0,-999.0,88,-99.99,,,0.01,weatherlink.com 1.10,2013-10-07 09:52:00,
2013-10-07 06:07:00,59.8,57.0,29.71,West,277,1.0,-999.0,91,-99.99,,,0.02,weatherlink.com 1.10,2013-10-07 10:07:00,
2013-10-07 06:22:00,58.9,57.0,29.72,WSW,240,0.0,-999.0,94,-99.99,,,0.02,weatherlink.com 1.10,2013-10-07 10:22:00,
2013-10-07 06:37:00,58.4,57.0,29.70,West,273,0.0,-999.0,95,-99.99,,,0.03,weatherlink.com 1.10,2013-10-07 10:37:00,
2013-10-07 06:52:00,58.2,57.0,29.71,SSW,209,0.0,-999.0,96,-99.99,,,0.06,weatherlink.com 1.10,2013-10-07 10:52:00,
2013-10-07 07:07:00,58.0,57.0,29.70,SSW,198,0.0,-999.0,97,-99.99,,,0.10,weatherlink.com 1.10,2013-10-07 11:07:00,
2013-10-07 07:22:00,57.9,57.0,29.70,WSW,245,0.0,-999.0,97,-99.99,,,0.13,weatherlink.com 1.10,2013-10-07 11:22:00,
2013-10-07 07:37:00,57.9,57.0,29.70,WSW,256,0.0,-999.0,98,-99.99,,,0.15,weatherlink.com 1.10,2013-10-07 11:37:00,
2013-10-07 07:52:00,57.8,57.0,29.71,WSW,249,0.0,-999.0,98,-99.99,,,0.17,weatherlink.com 1.10,2013-10-07 11:52:00,
2013-10-07 08:07:00,58.0,58.0,29.71,SW,217,0.0,-999.0,98,-99.99,,,0.19,weatherlink.com 1.10,2013-10-07 12:07:00,
2013-10-07 08:22:00,58.0,58.0,29.71,SW,236,0.0,-999.0,98,-99.99,,,0.21,weatherlink.com 1.10,2013-10-07 12:22:00,
2013-10-07 08:37:00,58.1,58.0,29.72,WSW,251,0.0,-999.0,98,-99.99,,,0.23,weatherlink.com 1.10,2013-10-07 12:37:00,
2013-10-07 08:52:00,58.1,58.0,29.71,WNW,282,0.0,-999.0,99,-99.99,,,0.25,weatherlink.com 1.10,2013-10-07 12:52:00,
2013-10-07 09:07:00,57.8,57.0,29.69,WSW,250,0.0,-999.0,98,-99.99,,,0.26,weatherlink.com 1.10,2013-10-07 13:07:00,
2013-10-07 09:22:00,57.9,58.0,29.70,SW,234,0.0,-999.0,99,-99.99,,,0.27,weatherlink.com 1.10,2013-10-07 13:22:00,
2013-10-07 09:37:00,57.9,57.0,29.71,SW,221,0.0,-999.0,98,-99.99,,,0.27,weatherlink.com 1.10,2013-10-07 13:37:00,
2013-10-07 09:52:00,57.6,57.0,29.72,WSW,241,0.0,-999.0,98,-99.99,,,0.28,weatherlink.com 1.10,2013-10-07 13:52:00,
2013-10-07 10:07:00,56.6,56.0,29.73,WSW,243,0.0,-999.0,98,-99.99,,,0.31,weatherlink.com 1.10,2013-10-07 14:07:00,
2013-10-07 10:22:00,55.7,55.0,29.75,West,261,5.0,-999.0,97,-99.99,,,0.34,weatherlink.com 1.10,2013-10-07 14:22:00,
2013-10-07 10:37:00,55.6,55.0,29.74,SW,229,4.0,-999.0,97,-99.99,,,0.34,weatherlink.com 1.10,2013-10-07 14:37:00,
2013-10-07 10:52:00,55.5,55.0,29.74,WSW,246,0.0,-999.0,97,-99.99,,,0.34,weatherlink.com 1.10,2013-10-07 14:52:00,
2013-10-07 11:07:00,55.4,55.0,29.74,West,265,1.0,-999.0,97,-99.99,,,0.34,weatherlink.com 1.10,2013-10-07 15:07:00,
2013-10-07 11:22:00,55.7,55.0,29.74,WSW,240,1.0,-999.0,97,-99.99,,,0.34,weatherlink.com 1.10,2013-10-07 15:22:00,
2013-10-07 11:37:00,56.3,56.0,29.74,West,263,2.0,-999.0,97,-99.99,,,0.34,weatherlink.com 1.10,2013-10-07 15:37:00,
2013-10-07 11:52:00,57.1,55.0,29.74,West,259,8.0,-999.0,93,-99.99,,,0.34,weatherlink.com 1.10,2013-10-07 15:52:00,
2013-10-07 12:07:00,58.0,55.0,29.74,West,271,6.0,-999.0,88,-99.99,,,0.34,weatherlink.com 1.10,2013-10-07 16:07:00,
2013-10-07 12:22:00,58.6,51.0,29.74,SW,218,13.0,-999.0,75,-99.99,,,0.34,weatherlink.com 1.10,2013-10-07 16:22:00,
2013-10-07 12:37:00,58.3,49.0,29.75,North,360,12.0,-999.0,72,-99.99,,,0.34,weatherlink.com 1.10,2013-10-07 16:37:00,
2013-10-07 12:52:00,58.2,48.0,29.75,West,277,8.0,-999.0,69,-99.99,,,0.34,weatherlink.com 1.10,2013-10-07 16:52:00,
2013-10-07 14:09:00,61.1,49.0,29.73,SW,221,5.0,-999.0,64,-99.99,,,0.35,weatherlink.com 1.10,2013-10-07 18:09:00,
2013-10-07 14:23:00,61.2,48.0,29.74,West,267,9.0,-999.0,63,-99.99,,,0.35,weatherlink.com 1.10,2013-10-07 18:23:00,
2013-10-07 14:38:00,61.2,48.0,29.74,SSW,200,12.0,-999.0,63,-99.99,,,0.35,weatherlink.com 1.10,2013-10-07 18:38:00,
2013-10-07 14:53:00,60.9,47.0,29.75,West,279,10.0,-999.0,60,-99.99,,,0.35,weatherlink.com 1.10,2013-10-07 18:53:00,
2013-10-07 15:08:00,60.0,47.0,29.76,NNW,342,11.0,-999.0,62,-99.99,,,0.35,weatherlink.com 1.10,2013-10-07 19:08:00,
2013-10-07 15:23:00,60.2,47.0,29.77,West,271,3.0,-999.0,62,-99.99,,,0.35,weatherlink.com 1.10,2013-10-07 19:23:00,
2013-10-07 15:38:00,60.0,46.0,29.78,West,272,9.0,-999.0,61,-99.99,,,0.35,weatherlink.com 1.10,2013-10-07 19:38:00,
2013-10-07 15:53:00,59.4,47.0,29.78,West,278,6.0,-999.0,64,-99.99,,,0.35,weatherlink.com 1.10,2013-10-07 19:53:00,
2013-10-07 16:08:00,59.3,47.0,29.79,West,278,5.0,-999.0,65,-99.99,,,0.35,weatherlink.com 1.10,2013-10-07 20:08:00,
2013-10-07 16:23:00,60.0,46.0,29.80,WSW,238,8.0,-999.0,61,-99.99,,,0.35,weatherlink.com 1.10,2013-10-07 20:23:00,
2013-10-07 16:38:00,59.8,46.0,29.81,West,267,4.0,-999.0,61,-99.99,,,0.35,weatherlink.com 1.10,2013-10-07 20:38:00,
2013-10-07 16:53:00,60.2,46.0,29.81,West,280,8.0,-999.0,59,-99.99,,,0.35,weatherlink.com 1.10,2013-10-07 20:53:00,
2013-10-07 17:08:00,60.4,46.0,29.82,West,271,11.0,-999.0,59,-99.99,,,0.35,weatherlink.com 1.10,2013-10-07 21:08:00,
2013-10-07 17:23:00,60.3,47.0,29.83,West,267,7.0,-999.0,61,-99.99,,,0.35,weatherlink.com 1.10,2013-10-07 21:23:00,
2013-10-07 17:38:00,59.8,47.0,29.84,WSW,244,5.0,-999.0,62,-99.99,,,0.35,weatherlink.com 1.10,2013-10-07 21:38:00,
2013-10-07 17:53:00,59.2,47.0,29.84,WSW,238,0.0,-999.0,64,-99.99,,,0.35,weatherlink.com 1.10,2013-10-07 21:53:00,
2013-10-07 18:08:00,58.8,47.0,29.86,WSW,255,6.0,-999.0,66,-99.99,,,0.35,weatherlink.com 1.10,2013-10-07 22:08:00,
2013-10-07 18:23:00,58.6,47.0,29.87,SW,235,9.0,-999.0,66,-99.99,,,0.35,weatherlink.com 1.10,2013-10-07 22:23:00,
2013-10-07 18:38:00,58.5,47.0,29.87,WSW,248,9.0,-999.0,66,-99.99,,,0.35,weatherlink.com 1.10,2013-10-07 22:38:00,
2013-10-07 18:53:00,58.3,48.0,29.88,West,269,5.0,-999.0,68,-99.99,,,0.35,weatherlink.com 1.10,2013-10-07 22:53:00,
2013-10-07 19:08:00,57.6,49.0,29.90,West,275,9.0,-999.0,73,-99.99,,,0.35,weatherlink.com 1.10,2013-10-07 23:08:00,
2013-10-07 19:23:00,55.6,51.0,29.92,West,278,7.0,-999.0,84,-99.99,,,0.35,weatherlink.com 1.10,2013-10-07 23:23:00,
2013-10-07 19:38:00,55.3,52.0,29.93,West,270,4.0,-999.0,87,-99.99,,,0.35,weatherlink.com 1.10,2013-10-07 23:38:00,
2013-10-07 19:53:00,55.3,52.0,29.94,WNW,283,5.0,-999.0,87,-99.99,,,0.35,weatherlink.com 1.10,2013-10-07 23:53:00,
2013-10-07 20:08:00,55.8,51.0,29.96,WNW,298,12.0,-999.0,84,-99.99,,,0.35,weatherlink.com 1.10,2013-10-08 00:08:00,
2013-10-07 20:23:00,56.4,50.0,29.97,West,277,8.0,-999.0,80,-99.99,,,0.35,weatherlink.com 1.10,2013-10-08 00:23:00,
2013-10-07 20:38:00,56.3,51.0,29.98,WNW,296,8.0,-999.0,81,-99.99,,,0.35,weatherlink.com 1.10,2013-10-08 00:38:00,
2013-10-07 20:53:00,56.4,49.0,30.00,WNW,300,6.0,-999.0,75,-99.99,,,0.35,weatherlink.com 1.10,2013-10-08 00:53:00,
2013-10-07 21:08:00,55.9,48.0,30.01,WNW,290,7.0,-999.0,74,-99.99,,,0.35,weatherlink.com 1.10,2013-10-08 01:08:00,
2013-10-07 21:23:00,55.5,48.0,30.02,NW,304,7.0,-999.0,75,-99.99,,,0.35,weatherlink.com 1.10,2013-10-08 01:23:00,